Flag for Finland Weather past 2 weeks in Vantaa, Finland

Now
70 °F

Partly sunny.


Feels Like: 70 °F
Forecast: 56 / 66 °F
Wind: 9 mph from North

Location: Helsinki-Vantaa

Current Time: Jul 5, 2015 at 11:44:56 AM

Latest Report: Jul 5, 2015 at 11:20 AM


Visibility: N/A

Pressure: 30.04 "Hg

Humidity: 57%

Dew point: 54 °F

Location of VantaaLocation

Historic Weather in Vantaa — Graph

°F

Vantaa temperature yesterday

Maximum temperature yesterday: 82 °F (at 4:50 PM)
Minimum temperature yesterday: 59 °F (at 4:20 AM)
Average temperature yesterday: 71 °F

Past Weeks' High & Low Weather Summary

 TemperatureHumidityPressure
High84 °F (Jul 3, 1:20 PM)100% (Jun 20, 1:20 PM)30.33 "Hg (Jun 20, 1:20 PM)
Low46 °F (Jun 23, 4:20 AM)36% (Jul 2, 12:20 PM)29.65 "Hg (Jun 24, 7:20 AM)
Average61 °F74%29.94 "Hg
* Reported Jun 20 10:20 AM — Jul 5 10:20 AM, Vantaa, Weather by CustomWeather, © 2015

Note: Actual official high and low records may vary slightly from our data, if they occured in-between our weather recording intervals... More about our weather records

Advertising

Vantaa weather history for previous 24 hours

 ConditionsComfort  
Time TempWeatherWind HumidityBarometerVisibility
10:20 AM
Sun, Jul 5
68 °FPassing clouds.7 mph60%30.04 "HgN/A
9:50 AM66 °FPassing clouds.7 mph68%30.04 "HgN/A
9:20 AM64 °FPassing clouds.7 mph73%30.07 "HgN/A
8:50 AM64 °FPassing clouds.7 mph73%30.07 "HgN/A
8:20 AM63 °FPassing clouds.8 mph77%30.07 "HgN/A
7:50 AM61 °FSunny.7 mph83%30.04 "Hg10 mi
7:20 AM61 °FSunny.8 mph83%30.04 "Hg10 mi
6:50 AM61 °FSunny.9 mph77%30.04 "Hg10 mi
6:20 AM59 °FSunny.8 mph82%30.04 "Hg10 mi
5:50 AM57 °FSunny.7 mph82%30.04 "Hg10 mi
5:20 AM57 °FSunny.7 mph82%30.04 "Hg10 mi
4:50 AM57 °FClear.8 mph82%30.04 "Hg10 mi
4:20 AM57 °FClear.8 mph82%30.04 "Hg10 mi
3:50 AM57 °FClear.8 mph82%30.01 "Hg10 mi
3:20 AM59 °FClear.8 mph82%30.01 "Hg10 mi
2:50 AM59 °FClear.7 mph77%30.01 "Hg10 mi
2:20 AM61 °FClear.9 mph77%30.01 "Hg10 mi
1:50 AM61 °FClear.10 mph72%30.01 "Hg10 mi
1:20 AM63 °FClear.13 mph68%30.01 "Hg10 mi
12:50 AM63 °FClear.14 mph68%30.01 "Hg10 mi
12:20 AM64 °FClear.14 mph64%30.01 "Hg10 mi
11:50 PM
Sat, Jul 4
64 °FClear.12 mph64%30.01 "Hg10 mi
11:20 PM66 °FSunny.12 mph60%29.98 "Hg10 mi
10:50 PM68 °FSunny.15 mph56%29.98 "Hg10 mi
10:20 PM70 °FSunny.16 mph53%29.98 "Hg10 mi
9:50 PM72 °FSunny.14 mph47%29.98 "Hg10 mi
9:20 PM73 °FSunny.15 mph44%29.98 "Hg10 mi
8:50 PM75 °FSunny.14 mph47%29.98 "Hg10 mi
8:20 PM77 °FSunny.16 mph47%29.98 "Hg10 mi
7:50 PM79 °FSunny.15 mph48%29.98 "Hg10 mi
7:20 PM79 °FSunny.16 mph48%29.98 "Hg10 mi
6:50 PM81 °FSunny.16 mph45%29.98 "Hg10 mi
6:20 PM81 °FSunny.17 mph45%29.98 "Hg10 mi
5:50 PM81 °FPassing clouds.17 mph42%29.98 "HgN/A
5:20 PM81 °FScattered clouds.17 mph48%29.98 "HgN/A
4:50 PM82 °FPartly sunny.14 mph48%29.98 "HgN/A
4:20 PM81 °FPartly sunny.16 mph54%30.01 "HgN/A
3:50 PM81 °FPartly sunny.15 mph51%30.01 "HgN/A
3:20 PM81 °FPartly sunny.13 mph51%30.01 "HgN/A
2:50 PM81 °FPartly sunny.13 mph51%30.01 "HgN/A
2:20 PM81 °FPartly sunny.12 mph51%30.01 "HgN/A
1:50 PM81 °FPartly sunny.12 mph54%30.01 "HgN/A
1:20 PM81 °FPartly sunny.12 mph51%30.01 "HgN/A
12:50 PM79 °FSunny.12 mph58%30.01 "Hg10 mi
12:20 PM77 °FPassing clouds.10 mph61%30.01 "HgN/A
11:50 AM77 °FPassing clouds.8 mph57%30.04 "HgN/A
11:20 AM75 °FPassing clouds.9 mph65%30.04 "HgN/A
Weather by CustomWeather, © 2015

See weather overviewHow to use our weather pages